Location: Holyhead Bay
(53.3667°N, 4.6667°W)
Time: 05:27:17
(UTC+00:00)

COSMOS 2428 - Pass Details

Date: 24 November 2020
Orbit: 848 x 855 km, 70.9° (Epoch: 23 January)

Event Time Altitude Azimuth Distance (km) Brightness Sun altitude
Rises 17:06:58 0° 200° (SSW) 3,415 6.6 -8.2°
Reaches altitude 10° 17:09:25 10° 197° (SSW) 2,483 5.8 -8.6°
Maximum altitude 17:15:04 67° 117° (ESE) 928 2.8 -9.3°
Drops below altitude 10° 17:20:45 10° 36° (NE) 2,496 4.6 -10.1°
Enters shadow 17:21:22 - 35° (NE) 2,727 4.8 -10.2°
